START_TIME,STEP,MOV.,M6,t_acc.,M7,t_acc.,M19,t_acc.,H36,t_acc.
1979-07-30 15:00:26.130 ,1,0,0.,12.0,0.,12.0,0.,12.0,0.,12.0
1979-07-30 15:00:38.130 ,1,0,0.,12.0,0.,12.0,0.,12.0,0.,12.0
1979-07-30 15:00:50.130 ,2,1,0.,12.0,0.,12.0,0.,12.0,0.,12.0
1979-07-30 15:01:02.130 ,2,1,0.,12.0,0.,12.0,0.,12.0,0.,12.0
1979-07-30 15:01:14.130 ,2,0,0.,12.0,0.,12.0,0.,12.0,0.,12.0
1979-07-30 15:01:26.130 ,2,0,0.,12.0,0.,12.0,0.,12.0,0.,12.0
1979-07-30 15:01:38.130 ,3,1,0.,12.0,0.,12.0,0.,12.0,0.,12.0
1979-07-30 15:01:50.130 ,3,1,0.,12.0,0.,12.0,0.,12.0,0.,12.0
1979-07-30 15:02:02.130 ,3,0,0.,12.0,0.,12.0,0.,12.0,0.,12.0
1979-07-30 15:02:14.130 ,3,0,0.,12.0,0.,12.0,0.,12.0,0.,12.0
1979-07-30 15:02:26.130 ,4,1,0.,12.0,0.,12.0,0.,12.0,0.,12.0
1979-07-30 15:02:38.130 ,4,1,0.,12.0,0.,12.0,0.,12.0,0.,12.0
1979-07-30 15:02:50.130 ,4,0,0.,12.0,0.,12.0,0.,12.0,0.,12.0
1979-07-30 15:03:02.130 ,4,0,0.,12.0,0.,12.0,0.,12.0,0.,12.0
1979-07-30 15:03:14.130 ,5,1,0.,12.0,0.,12.0,0.,12.0,0.,12.0
1979-07-30 15:03:26.130 ,5,1,0.,12.0,0.,12.0,0.,12.0,0.,12.0
1979-07-30 15:03:38.130 ,5,0,0.,12.0,0.,12.0,0.,12.0,0.,12.0
1979-07-30 15:03:50.130 ,5,0,0.,12.0,0.,12.0,0.,12.0,0.,12.0
1979-07-30 15:04:02.130 ,6,1,0.,12.0,0.,12.0,0.,12.0,0.,12.0
1979-07-30 15:04:14.130 ,6,1,0.,12.0,0.,12.0,0.,12.0,0.,12.0
1979-07-30 15:04:26.130 ,6,0,0.,12.0,0.,12.0,0.,12.0,0.,12.0
1979-07-30 15:04:38.130 ,6,0,0.,12.0,0.,12.0,0.,12.0,0.,12.0
1979-07-30 15:04:50.130 ,7,1,0.,12.0,0.,12.0,0.,12.0,0.,12.0
1979-07-30 15:05:02.130 ,7,1,0.,12.0,0.,12.0,0.,12.0,0.,12.0
1979-07-30 15:05:14.130 ,7,0,0.,12.0,0.,12.0,0.,12.0,0.,12.0
1979-07-30 15:05:26.130 ,7,0,0.,12.0,0.,12.0,0.,12.0,0.,12.0
1979-07-30 15:05:38.130 ,7,1,0.,12.0,0.,12.0,0.,12.0,0.,12.0
1979-07-30 15:05:50.130 ,7,1,0.,12.0,0.,12.0,0.,12.0,0.,12.0
1979-07-30 15:06:02.130 ,7,0,0.,12.0,0.,12.0,0.,12.0,0.,12.0
1979-07-30 15:06:14.130 ,7,0,0.,12.0,0.,12.0,0.,12.0,0.,12.0
1979-07-30 15:06:26.130 ,6,1,0.,12.0,0.,12.0,0.,12.0,0.,12.0
1979-07-30 15:06:38.130 ,6,1,0.,12.0,0.,12.0,0.,12.0,0.,12.0
1979-07-30 15:06:50.130 ,6,0,0.,12.0,0.,12.0,0.,12.0,0.,12.0
1979-07-30 15:07:02.130 ,6,0,0.,12.0,0.,12.0,0.,12.0,0.,12.0
1979-07-30 15:07:14.130 ,5,1,0.,12.0,0.,12.0,0.,12.0,0.,12.0
1979-07-30 15:07:26.130 ,5,1,0.,12.0,0.,12.0,0.,12.0,0.,12.0
1979-07-30 15:07:38.130 ,5,0,0.,12.0,0.,12.0,0.,12.0,0.,12.0
1979-07-30 15:07:50.130 ,5,0,0.,12.0,0.,12.0,0.,12.0,0.,12.0
1979-07-30 15:08:02.130 ,4,1,0.,12.0,0.,12.0,0.,12.0,0.,12.0
1979-07-30 15:08:14.130 ,4,1,0.,12.0,0.,12.0,0.,12.0,0.,12.0
1979-07-30 15:08:26.130 ,4,0,0.,12.0,0.,12.0,0.,12.0,0.,12.0
1979-07-30 15:08:38.130 ,4,0,0.,12.0,0.,12.0,0.,12.0,0.,12.0
1979-07-30 15:08:50.130 ,3,1,0.,12.0,0.,12.0,0.,12.0,0.,12.0
1979-07-30 15:09:02.130 ,3,1,0.,12.0,0.,12.0,0.,12.0,0.,12.0
1979-07-30 15:09:14.130 ,3,0,0.,12.0,0.,12.0,0.,12.0,0.,12.0
1979-07-30 15:09:26.130 ,3,0,0.,12.0,0.,12.0,0.,12.0,0.,12.0
1979-07-30 15:09:38.130 ,2,1,0.,12.0,0.,12.0,0.,12.0,0.,12.0
1979-07-30 15:09:50.130 ,2,1,0.,12.0,0.,12.0,0.,12.0,0.,12.0
1979-07-30 15:10:02.130 ,2,0,0.,12.0,0.,12.0,0.,12.0,0.,12.0
1979-07-30 15:10:14.130 ,2,0,0.,12.0,0.,12.0,0.,12.0,0.,12.0
1979-07-30 15:10:26.130 ,1,1,0.,12.0,0.,12.0,0.,12.0,0.,12.0
1979-07-30 15:10:38.130 ,1,1,0.,12.0,0.,12.0,0.,12.0,0.,12.0
1979-07-30 15:10:50.130 ,1,0,0.,12.0,0.,12.0,0.,12.0,0.,12.0
1979-07-30 15:11:02.130 ,1,0,0.,12.0,0.,12.0,0.,12.0,0.,12.0
1979-07-30 15:11:14.130 ,0,1,0.,12.0,0.,12.0,0.,12.0,0.,12.0
1979-07-30 15:11:26.130 ,0,1,0.,12.0,0.,12.0,0.,12.0,0.,12.0
1979-07-30 15:11:38.130 ,0,0,0.,12.0,0.,12.0,0.,12.0,0.,12.0
1979-07-30 15:11:50.130 ,0,0,0.,12.0,0.,12.0,0.,12.0,0.,12.0
1979-07-30 15:12:02.130 ,0,1,0.,12.0,0.,12.0,0.,12.0,0.,12.0
1979-07-30 15:12:14.130 ,0,1,0.,12.0,0.,12.0,0.,12.0,0.,12.0
1979-07-30 15:12:26.130 ,0,0,0.,12.0,0.,12.0,0.,12.0,0.,12.0
1979-07-30 15:12:38.130 ,0,0,0.,12.0,0.,12.0,0.,12.0,0.,12.0
1979-07-30 15:12:50.130 ,1,1,0.,12.0,0.,12.0,0.,12.0,0.,12.0
1979-07-30 15:13:02.130 ,1,1,0.,12.0,0.,12.0,0.,12.0,0.,12.0
1979-07-30 15:13:14.130 ,1,0,0.,12.0,0.,12.0,0.,12.0,0.,12.0
1979-07-30 15:13:26.130 ,1,0,0.,12.0,0.,12.0,0.,12.0,0.,12.0
1979-07-30 15:13:38.130 ,2,1,0.,12.0,0.,12.0,0.,12.0,0.,12.0
1979-07-30 15:13:50.130 ,2,1,0.,12.0,0.,12.0,0.,12.0,0.,12.0
1979-07-30 15:14:02.130 ,2,0,0.,12.0,0.,12.0,0.,12.0,0.,12.0
1979-07-30 15:14:14.130 ,2,0,0.,12.0,0.,12.0,0.,12.0,0.,12.0
1979-07-30 15:14:26.130 ,3,1,0.,12.0,0.,12.0,0.,12.0,0.,12.0
1979-07-30 15:14:38.130 ,3,1,0.,12.0,0.,12.0,0.,12.0,0.,12.0
1979-07-30 15:14:50.130 ,3,0,0.,12.0,0.,12.0,0.,12.0,0.,12.0
1979-07-30 15:15:02.130 ,3,0,0.,12.0,0.,12.0,0.,12.0,0.,12.0
1979-07-30 15:15:14.130 ,4,1,0.,12.0,0.,12.0,0.,12.0,0.,12.0
1979-07-30 15:15:26.130 ,4,1,0.,12.0,0.,12.0,0.,12.0,0.,12.0
1979-07-30 15:15:38.130 ,4,0,0.,12.0,0.,12.0,0.,12.0,0.,12.0
1979-07-30 15:15:50.130 ,4,0,0.,12.0,0.,12.0,0.,12.0,0.,12.0
1979-07-30 15:16:02.130 ,5,1,0.,12.0,0.,12.0,0.,12.0,0.,12.0
1979-07-30 15:16:14.130 ,5,1,0.,12.0,0.,12.0,0.,12.0,0.,12.0
1979-07-30 15:16:26.130 ,5,0,0.,12.0,0.,12.0,0.,12.0,0.,12.0
1979-07-30 15:16:38.130 ,5,0,0.,12.0,0.,12.0,0.,12.0,0.,12.0
1979-07-30 15:16:50.130 ,6,1,0.,12.0,0.,12.0,0.,12.0,0.,12.0
1979-07-30 15:17:02.130 ,6,1,0.,12.0,0.,12.0,0.,12.0,0.,12.0
1979-07-30 15:17:14.130 ,6,0,0.,12.0,0.,12.0,0.,12.0,0.,12.0
1979-07-30 15:17:26.130 ,6,0,0.,12.0,0.,12.0,0.,12.0,0.,12.0
1979-07-30 15:17:38.130 ,7,1,0.,12.0,0.,12.0,0.,12.0,0.,12.0
1979-07-30 15:17:50.130 ,7,1,0.,12.0,0.,12.0,0.,12.0,0.,12.0
1979-07-30 15:18:02.130 ,7,0,0.,12.0,0.,12.0,0.,12.0,0.,12.0
1979-07-30 15:18:14.130 ,7,0,0.,12.0,0.,12.0,0.,12.0,0.,12.0
1979-07-30 15:18:26.130 ,7,1,0.,12.0,0.,12.0,0.,12.0,0.,12.0
1979-07-30 15:18:38.130 ,7,1,0.,12.0,0.,12.0,0.,12.0,0.,12.0
1979-07-30 15:18:50.130 ,7,0,0.,12.0,0.,12.0,0.,12.0,0.,12.0
1979-07-30 15:19:02.130 ,7,0,0.,12.0,0.,12.0,0.,12.0,0.,12.0
1979-07-30 15:19:14.130 ,6,1,0.,12.0,0.,12.0,0.,12.0,0.,12.0
1979-07-30 15:19:26.130 ,6,1,0.,12.0,0.,12.0,0.,12.0,0.,12.0
1979-07-30 15:19:38.130 ,6,0,0.,12.0,0.,12.0,0.,12.0,0.,12.0
1979-07-30 15:19:50.130 ,6,0,0.,12.0,0.,12.0,0.,12.0,0.,12.0
1979-07-30 15:20:02.130 ,5,1,0.,12.0,0.,12.0,0.,12.0,0.,12.0
1979-07-30 15:20:14.130 ,5,1,0.,12.0,0.,12.0,0.,12.0,0.,12.0
1979-07-30 15:20:26.130 ,5,0,0.,12.0,0.,12.0,0.,12.0,0.,12.0
1979-07-30 15:20:38.130 ,5,0,0.,12.0,0.,12.0,0.,12.0,0.,12.0
1979-07-30 15:20:50.130 ,4,1,0.,12.0,0.,12.0,0.,12.0,0.,12.0
1979-07-30 15:21:02.130 ,4,1,0.,12.0,0.,12.0,0.,12.0,0.,12.0
1979-07-30 15:21:14.130 ,4,0,0.,12.0,0.,12.0,0.,12.0,0.,12.0
1979-07-30 15:21:26.130 ,4,0,0.,12.0,0.,12.0,0.,12.0,0.,12.0
1979-07-30 15:21:38.130 ,3,1,0.,12.0,0.,12.0,0.,12.0,0.,12.0
1979-07-30 15:21:50.130 ,3,1,0.,12.0,0.,12.0,0.,12.0,0.,12.0
1979-07-30 15:22:02.130 ,3,0,0.,12.0,0.,12.0,0.,12.0,0.,12.0
1979-07-30 15:22:14.130 ,3,0,0.,12.0,0.,12.0,0.,12.0,0.,12.0
1979-07-30 15:22:26.130 ,2,1,0.,12.0,0.,12.0,0.,12.0,0.,12.0
1979-07-30 15:22:38.130 ,2,1,0.,12.0,0.,12.0,0.,12.0,0.,12.0
1979-07-30 15:22:50.130 ,2,0,0.,12.0,0.,12.0,0.,12.0,0.,12.0
1979-07-30 15:23:02.130 ,2,0,0.,12.0,0.,12.0,0.,12.0,0.,12.0
1979-07-30 15:23:14.130 ,1,1,0.,12.0,0.,12.0,0.,12.0,0.,12.0
1979-07-30 15:23:26.130 ,1,1,0.,12.0,0.,12.0,0.,12.0,0.,12.0
1979-07-30 15:23:38.130 ,1,0,0.,12.0,0.,12.0,0.,12.0,0.,12.0
1979-07-30 15:23:50.130 ,1,0,0.,12.0,0.,12.0,0.,12.0,0.,12.0
1979-07-30 15:24:02.130 ,0,1,0.,12.0,0.,12.0,0.,12.0,0.,12.0
1979-07-30 15:24:14.130 ,0,1,0.,12.0,0.,12.0,0.,12.0,0.,12.0
1979-07-30 15:24:26.130 ,0,0,0.,12.0,0.,12.0,0.,12.0,0.,12.0
1979-07-30 15:24:38.130 ,0,0,0.,12.0,0.,12.0,0.,12.0,0.,12.0
1979-07-30 15:24:50.130 ,0,1,0.,12.0,0.,12.0,0.,12.0,0.,12.0
1979-07-30 15:25:02.130 ,0,1,0.,12.0,0.,12.0,0.,12.0,0.,12.0
1979-07-30 15:25:14.130 ,0,0,0.,12.0,0.,12.0,0.,12.0,0.,12.0
1979-07-30 15:25:26.130 ,0,0,0.,12.0,0.,12.0,0.,12.0,0.,12.0
1979-07-30 15:25:38.130 ,1,1,0.,12.0,0.,12.0,0.,12.0,0.,12.0
1979-07-30 15:25:50.130 ,1,1,0.,12.0,0.,12.0,0.,12.0,0.,12.0
1979-07-30 15:26:02.130 ,1,0,0.,12.0,0.,12.0,0.,12.0,0.,12.0
1979-07-30 15:26:14.130 ,1,0,0.,12.0,0.,12.0,0.,12.0,0.,12.0
1979-07-30 15:26:26.130 ,2,1,0.,12.0,0.,12.0,0.,12.0,0.,12.0
1979-07-30 15:26:38.130 ,2,1,0.,12.0,0.,12.0,0.,12.0,0.,12.0
1979-07-30 15:26:50.130 ,2,0,0.,12.0,0.,12.0,0.,12.0,0.,12.0
1979-07-30 15:27:02.130 ,2,0,0.,12.0,0.,12.0,0.,12.0,0.,12.0
1979-07-30 15:27:14.130 ,3,1,0.,12.0,0.,12.0,0.,12.0,0.,12.0
1979-07-30 15:27:26.130 ,3,1,0.,12.0,0.,12.0,0.,12.0,0.,12.0
1979-07-30 15:27:38.130 ,3,0,0.,12.0,0.,12.0,0.,12.0,0.,12.0
1979-07-30 15:27:50.130 ,3,0,0.,12.0,0.,12.0,0.,12.0,0.,12.0
1979-07-30 15:28:02.130 ,4,1,0.,12.0,0.,12.0,0.,12.0,0.,12.0
1979-07-30 15:28:14.130 ,4,1,0.,12.0,0.,12.0,0.,12.0,0.,12.0
1979-07-30 15:28:26.130 ,4,0,0.,12.0,0.,12.0,0.,12.0,0.,12.0
1979-07-30 15:28:38.130 ,4,0,0.,12.0,0.,12.0,0.,12.0,0.,12.0
1979-07-30 15:28:50.130 ,5,1,0.,12.0,0.,12.0,0.,12.0,0.,12.0
1979-07-30 15:29:02.130 ,5,1,0.,12.0,0.,12.0,0.,12.0,0.,12.0
1979-07-30 15:29:14.130 ,5,0,0.,12.0,0.,12.0,0.,12.0,0.,12.0
1979-07-30 15:29:26.130 ,5,0,0.,12.0,0.,12.0,0.,12.0,0.,12.0
1979-07-30 15:29:38.130 ,6,1,0.,12.0,0.,12.0,0.,12.0,0.,12.0
1979-07-30 15:29:50.130 ,6,1,1.,12.0,0.,12.0,0.,12.0,0.,12.0
1979-07-30 15:30:02.130 ,6,0,0.,12.0,0.,12.0,0.,12.0,0.,12.0
1979-07-30 15:30:14.130 ,6,0,0.,12.0,0.,12.0,0.,12.0,0.,12.0
1979-07-30 15:30:26.130 ,7,0,0.,12.0,0.,12.0,0.,12.0,0.,12.0
1979-07-30 15:30:38.130 ,7,0,0.,12.0,0.,12.0,0.,12.0,0.,12.0
1979-07-30 15:30:50.130 ,7,0,0.,12.0,0.,12.0,0.,12.0,0.,12.0
1979-07-30 15:31:02.130 ,7,0,0.,12.0,0.,12.0,0.,12.0,0.,12.0
1979-07-30 15:31:14.130 ,4,1,0.,12.0,0.,12.0,0.,12.0,0.,12.0
1979-07-30 15:31:26.130 ,4,1,0.,12.0,0.,12.0,0.,12.0,0.,12.0
1979-07-30 15:31:38.130 ,0,1,0.,12.0,0.,12.0,0.,12.0,0.,12.0
1979-07-30 15:31:50.130 ,0,1,0.,12.0,0.,12.0,0.,12.0,0.,12.0
1979-07-30 15:32:02.130 ,3,1,0.,12.0,0.,12.0,0.,12.0,0.,12.0
1979-07-30 15:32:14.130 ,3,1,0.,12.0,0.,12.0,0.,12.0,0.,12.0
1979-07-30 15:32:26.130 ,7,1,0.,12.0,0.,12.0,0.,12.0,0.,12.0
1979-07-30 15:32:38.130 ,7,1,0.,12.0,0.,12.0,0.,12.0,0.,12.0
1979-07-30 15:32:50.130 ,4,1,0.,12.0,0.,12.0,0.,12.0,0.,12.0
1979-07-30 15:33:02.130 ,4,1,0.,12.0,0.,12.0,0.,12.0,0.,12.0
1979-07-30 15:33:14.130 ,0,1,0.,12.0,0.,12.0,0.,12.0,0.,12.0
1979-07-30 15:33:26.130 ,0,1,0.,12.0,0.,12.0,0.,12.0,0.,12.0
1979-07-30 15:33:38.130 ,3,1,0.,12.0,0.,12.0,0.,12.0,0.,12.0
1979-07-30 15:33:50.130 ,3,1,0.,12.0,0.,12.0,0.,12.0,0.,12.0
1979-07-30 15:34:02.130 ,7,1,0.,12.0,0.,12.0,0.,12.0,0.,12.0
1979-07-30 15:34:14.130 ,7,1,0.,12.0,0.,12.0,0.,12.0,0.,12.0
1979-07-30 15:34:26.130 ,4,1,0.,12.0,0.,12.0,0.,12.0,0.,12.0
1979-07-30 15:34:38.130 ,4,1,0.,12.0,0.,12.0,0.,12.0,0.,12.0
1979-07-30 15:34:50.130 ,0,1,0.,12.0,0.,12.0,0.,12.0,0.,12.0
1979-07-30 15:35:02.130 ,0,1,0.,12.0,0.,12.0,0.,12.0,0.,12.0
1979-07-30 15:35:14.130 ,3,1,0.,12.0,0.,12.0,0.,12.0,0.,12.0
1979-07-30 15:35:26.130 ,3,1,0.,12.0,0.,12.0,0.,12.0,0.,12.0
1979-07-30 15:35:38.130 ,7,1,0.,12.0,0.,12.0,0.,12.0,0.,12.0
1979-07-30 15:35:50.130 ,7,1,0.,12.0,0.,12.0,0.,12.0,0.,12.0
1979-07-30 15:36:02.130 ,4,1,0.,12.0,0.,12.0,0.,12.0,0.,12.0
1979-07-30 15:36:14.130 ,4,1,0.,12.0,0.,12.0,0.,12.0,0.,12.0
1979-07-30 15:36:26.130 ,0,1,0.,12.0,0.,12.0,0.,12.0,0.,12.0
1979-07-30 15:36:38.130 ,0,1,0.,12.0,0.,12.0,0.,12.0,0.,12.0
1979-07-30 15:36:50.130 ,3,1,0.,12.0,0.,12.0,0.,12.0,0.,12.0
1979-07-30 15:37:02.130 ,3,1,0.,12.0,0.,12.0,0.,12.0,0.,12.0
1979-07-30 15:37:14.130 ,7,1,0.,12.0,0.,12.0,0.,12.0,0.,12.0
1979-07-30 15:37:26.130 ,7,1,0.,12.0,0.,12.0,0.,12.0,0.,12.0
1979-07-30 15:37:38.130 ,4,1,0.,12.0,0.,12.0,0.,12.0,0.,12.0
1979-07-30 15:37:50.130 ,4,1,0.,12.0,0.,12.0,0.,12.0,0.,12.0
1979-07-30 15:38:02.130 ,0,1,0.,12.0,0.,12.0,0.,12.0,0.,12.0
1979-07-30 15:38:14.130 ,0,1,0.,12.0,0.,12.0,0.,12.0,0.,12.0
1979-07-30 15:38:26.130 ,3,1,0.,12.0,0.,12.0,0.,12.0,0.,12.0
1979-07-30 15:38:38.130 ,3,1,0.,12.0,0.,12.0,0.,12.0,0.,12.0
1979-07-30 15:38:50.130 ,7,1,0.,12.0,0.,12.0,0.,12.0,0.,12.0
1979-07-30 15:39:02.130 ,7,1,0.,12.0,0.,12.0,0.,12.0,0.,12.0
1979-07-30 15:39:14.130 ,4,1,0.,12.0,0.,12.0,0.,12.0,0.,12.0
1979-07-30 15:39:26.130 ,4,1,0.,12.0,0.,12.0,0.,12.0,0.,12.0
1979-07-30 15:39:38.130 ,0,1,0.,12.0,0.,12.0,0.,12.0,0.,12.0
1979-07-30 15:39:50.130 ,0,1,0.,12.0,0.,12.0,0.,12.0,0.,12.0
1979-07-30 15:40:02.130 ,3,1,0.,12.0,0.,12.0,0.,12.0,0.,12.0
1979-07-30 15:40:14.130 ,3,1,0.,12.0,0.,12.0,0.,12.0,0.,12.0
1979-07-30 15:40:26.130 ,7,1,0.,12.0,0.,12.0,0.,12.0,0.,12.0
1979-07-30 15:40:38.130 ,7,1,0.,12.0,0.,12.0,0.,12.0,0.,12.0
1979-07-30 15:40:50.130 ,4,1,0.,12.0,0.,12.0,0.,12.0,0.,12.0
1979-07-30 15:41:02.130 ,4,1,0.,12.0,0.,12.0,0.,12.0,0.,12.0
1979-07-30 15:41:14.130 ,0,1,0.,12.0,0.,12.0,0.,12.0,0.,12.0
1979-07-30 15:41:26.130 ,0,1,0.,12.0,0.,12.0,0.,12.0,0.,12.0
1979-07-30 15:41:38.130 ,0,0,0.,12.0,0.,12.0,0.,12.0,0.,12.0
1979-07-30 15:41:50.130 ,0,0,0.,12.0,0.,12.0,0.,12.0,0.,12.0
1979-07-30 15:42:02.130 ,0,0,0.,12.0,0.,12.0,0.,12.0,0.,12.0
1979-07-30 15:42:14.130 ,0,0,0.,12.0,0.,12.0,0.,12.0,0.,12.0
1979-07-30 15:42:26.130 ,5,1,0.,12.0,0.,12.0,0.,12.0,0.,12.0
1979-07-30 15:42:38.130 ,5,1,0.,12.0,0.,12.0,0.,12.0,0.,12.0
1979-07-30 15:42:50.130 ,5,0,0.,12.0,0.,12.0,0.,12.0,0.,12.0
1979-07-30 15:43:02.130 ,5,0,0.,12.0,0.,12.0,0.,12.0,0.,12.0
1979-07-30 15:43:14.130 ,4,1,1.,12.0,0.,12.0,0.,12.0,0.,12.0
1979-07-30 15:43:26.130 ,4,1,0.,12.0,0.,12.0,0.,12.0,0.,12.0
1979-07-30 15:43:38.130 ,4,0,0.,12.0,0.,12.0,0.,12.0,0.,12.0
1979-07-30 15:43:50.130 ,4,0,0.,12.0,0.,12.0,0.,12.0,0.,12.0
1979-07-30 15:44:02.130 ,3,1,0.,12.0,0.,12.0,0.,12.0,0.,12.0
1979-07-30 15:44:14.130 ,3,1,0.,12.0,0.,12.0,0.,12.0,0.,12.0
1979-07-30 15:44:26.130 ,3,0,0.,12.0,0.,12.0,0.,12.0,0.,12.0
1979-07-30 15:44:38.130 ,3,0,0.,12.0,0.,12.0,0.,12.0,0.,12.0
1979-07-30 15:44:50.130 ,2,1,0.,12.0,0.,12.0,0.,12.0,0.,12.0
1979-07-30 15:45:02.130 ,2,1,0.,12.0,0.,12.0,0.,12.0,0.,12.0
1979-07-30 15:45:14.130 ,2,0,0.,12.0,0.,12.0,0.,12.0,0.,12.0
1979-07-30 15:45:26.130 ,2,0,0.,12.0,0.,12.0,0.,12.0,0.,12.0
1979-07-30 15:45:38.130 ,1,1,0.,12.0,0.,12.0,0.,12.0,0.,12.0
1979-07-30 15:45:50.130 ,1,1,0.,12.0,0.,12.0,0.,12.0,0.,12.0
1979-07-30 15:46:02.130 ,1,0,0.,12.0,0.,12.0,0.,12.0,0.,12.0
1979-07-30 15:46:14.130 ,1,0,0.,12.0,0.,12.0,0.,12.0,0.,12.0
1979-07-30 15:46:26.130 ,0,1,0.,12.0,0.,12.0,0.,12.0,0.,12.0
1979-07-30 15:46:38.130 ,0,1,0.,12.0,0.,12.0,0.,12.0,0.,12.0
1979-07-30 15:46:50.130 ,0,0,0.,12.0,0.,12.0,0.,12.0,0.,12.0
1979-07-30 15:47:02.130 ,0,0,0.,12.0,0.,12.0,0.,12.0,0.,12.0
1979-07-30 15:47:14.130 ,0,1,0.,12.0,0.,12.0,0.,12.0,0.,12.0
1979-07-30 15:47:26.130 ,0,1,0.,12.0,0.,12.0,0.,12.0,0.,12.0
1979-07-30 15:47:38.130 ,0,0,0.,12.0,0.,12.0,0.,12.0,0.,12.0
1979-07-30 15:47:50.130 ,0,0,0.,12.0,0.,12.0,0.,12.0,0.,12.0
1979-07-30 15:48:02.130 ,1,1,0.,12.0,0.,12.0,0.,12.0,0.,12.0
1979-07-30 15:48:14.130 ,1,1,0.,12.0,0.,12.0,0.,12.0,0.,12.0
1979-07-30 15:48:26.130 ,1,0,0.,12.0,0.,12.0,0.,12.0,0.,12.0
1979-07-30 15:48:38.130 ,1,0,0.,12.0,0.,12.0,0.,12.0,0.,12.0
1979-07-30 15:48:50.130 ,2,1,0.,12.0,0.,12.0,0.,12.0,0.,12.0
1979-07-30 15:49:02.130 ,2,1,0.,12.0,0.,12.0,0.,12.0,0.,12.0
1979-07-30 15:49:14.130 ,2,0,0.,12.0,0.,12.0,0.,12.0,0.,12.0
1979-07-30 15:49:26.130 ,2,0,0.,12.0,0.,12.0,0.,12.0,0.,12.0
1979-07-30 15:49:38.130 ,3,1,0.,12.0,0.,12.0,0.,12.0,0.,12.0
1979-07-30 15:49:50.130 ,3,1,0.,12.0,0.,12.0,0.,12.0,0.,12.0
1979-07-30 15:50:02.130 ,3,0,0.,12.0,0.,12.0,0.,12.0,0.,12.0
1979-07-30 15:50:14.130 ,3,0,0.,12.0,0.,12.0,0.,12.0,0.,12.0
1979-07-30 15:50:26.130 ,4,1,0.,12.0,0.,12.0,0.,12.0,0.,12.0
1979-07-30 15:50:38.130 ,4,1,0.,12.0,0.,12.0,0.,12.0,0.,12.0
1979-07-30 15:50:50.130 ,4,0,0.,12.0,0.,12.0,0.,12.0,0.,12.0
1979-07-30 15:51:02.130 ,4,0,0.,12.0,0.,12.0,0.,12.0,0.,12.0
1979-07-30 15:51:14.130 ,5,1,0.,12.0,0.,12.0,0.,12.0,0.,12.0
1979-07-30 15:51:26.130 ,5,1,0.,12.0,0.,12.0,0.,12.0,0.,12.0
1979-07-30 15:51:38.130 ,5,0,0.,12.0,0.,12.0,0.,12.0,0.,12.0
1979-07-30 15:51:50.130 ,5,0,0.,12.0,0.,12.0,0.,12.0,0.,12.0
1979-07-30 15:52:02.130 ,6,1,0.,12.0,0.,12.0,0.,12.0,0.,12.0
1979-07-30 15:52:14.130 ,6,1,0.,12.0,0.,12.0,0.,12.0,0.,12.0
1979-07-30 15:52:26.130 ,6,0,0.,12.0,0.,12.0,0.,12.0,0.,12.0
1979-07-30 15:52:38.130 ,6,0,0.,12.0,0.,12.0,0.,12.0,0.,12.0
1979-07-30 15:52:50.130 ,7,1,0.,12.0,0.,12.0,0.,12.0,0.,12.0
1979-07-30 15:53:02.130 ,7,1,0.,12.0,0.,12.0,0.,12.0,0.,12.0
1979-07-30 15:53:14.130 ,7,0,0.,12.0,0.,12.0,0.,12.0,0.,12.0
1979-07-30 15:53:26.130 ,7,0,0.,12.0,0.,12.0,0.,12.0,0.,12.0
1979-07-30 15:53:38.130 ,7,1,0.,12.0,0.,12.0,0.,12.0,0.,12.0
1979-07-30 15:53:50.130 ,7,1,0.,12.0,0.,12.0,0.,12.0,0.,12.0
1979-07-30 15:54:02.130 ,7,0,0.,12.0,0.,12.0,0.,12.0,0.,12.0
1979-07-30 15:54:14.130 ,7,0,0.,12.0,0.,12.0,0.,12.0,0.,12.0
1979-07-30 15:54:26.130 ,6,1,0.,12.0,0.,12.0,0.,12.0,0.,12.0
1979-07-30 15:54:38.130 ,6,1,0.,12.0,0.,12.0,0.,12.0,0.,12.0
1979-07-30 15:54:50.130 ,6,0,0.,12.0,0.,12.0,0.,12.0,0.,12.0
1979-07-30 15:55:02.130 ,6,0,0.,12.0,0.,12.0,0.,12.0,0.,12.0
1979-07-30 15:55:14.130 ,5,1,0.,12.0,0.,12.0,0.,12.0,0.,12.0
1979-07-30 15:55:26.130 ,5,1,0.,12.0,0.,12.0,0.,12.0,0.,12.0
1979-07-30 15:55:38.130 ,5,0,0.,12.0,0.,12.0,0.,12.0,0.,12.0
1979-07-30 15:55:50.130 ,5,0,0.,12.0,0.,12.0,0.,12.0,0.,12.0
1979-07-30 15:56:02.130 ,4,1,0.,12.0,0.,12.0,0.,12.0,0.,12.0
1979-07-30 15:56:14.130 ,4,1,0.,12.0,0.,12.0,0.,12.0,0.,12.0
1979-07-30 15:56:26.130 ,4,0,0.,12.0,0.,12.0,0.,12.0,0.,12.0
1979-07-30 15:56:38.130 ,4,0,0.,12.0,0.,12.0,0.,12.0,0.,12.0
1979-07-30 15:56:50.130 ,3,1,0.,12.0,0.,12.0,0.,12.0,0.,12.0
1979-07-30 15:57:02.130 ,3,1,0.,12.0,0.,12.0,0.,12.0,0.,12.0
1979-07-30 15:57:14.130 ,3,0,0.,12.0,0.,12.0,0.,12.0,0.,12.0
1979-07-30 15:57:26.130 ,3,0,0.,12.0,0.,12.0,0.,12.0,0.,12.0
1979-07-30 15:57:38.130 ,2,1,0.,12.0,0.,12.0,0.,12.0,0.,12.0
1979-07-30 15:57:50.130 ,2,1,0.,12.0,0.,12.0,0.,12.0,0.,12.0
1979-07-30 15:58:02.130 ,2,0,0.,12.0,0.,12.0,0.,12.0,0.,12.0
1979-07-30 15:58:14.130 ,2,0,0.,12.0,0.,12.0,0.,12.0,0.,12.0
1979-07-30 15:58:26.130 ,1,1,0.,12.0,0.,12.0,0.,12.0,0.,12.0
1979-07-30 15:58:38.130 ,1,1,0.,12.0,0.,12.0,0.,12.0,0.,12.0
1979-07-30 15:58:50.130 ,1,0,0.,12.0,0.,12.0,0.,12.0,0.,12.0
1979-07-30 15:59:02.130 ,1,0,0.,12.0,0.,12.0,0.,12.0,0.,12.0
1979-07-30 15:59:14.130 ,0,1,0.,12.0,0.,12.0,0.,12.0,0.,12.0
1979-07-30 15:59:26.130 ,0,1,0.,12.0,0.,12.0,0.,12.0,0.,12.0
1979-07-30 15:59:38.130 ,0,0,0.,12.0,0.,12.0,0.,12.0,0.,12.0
1979-07-30 15:59:50.130 ,0,0,0.,12.0,0.,12.0,0.,12.0,0.,12.0
1979-07-30 16:00:02.120 ,0,1,0.,12.0,0.,12.0,0.,12.0,0.,12.0
1979-07-30 16:00:14.120 ,0,1,0.,12.0,0.,12.0,0.,12.0,0.,12.0
1979-07-30 16:00:26.130 ,0,0,0.,12.0,0.,12.0,0.,12.0,0.,12.0
1979-07-30 16:00:38.130 ,0,0,0.,12.0,0.,12.0,0.,12.0,0.,12.0
1979-07-30 16:00:50.130 ,1,1,0.,12.0,0.,12.0,0.,12.0,0.,12.0
1979-07-30 16:01:02.130 ,1,1,0.,12.0,0.,12.0,0.,12.0,0.,12.0
1979-07-30 16:01:14.130 ,1,0,0.,12.0,0.,12.0,0.,12.0,0.,12.0
1979-07-30 16:01:26.130 ,1,0,0.,12.0,0.,12.0,0.,12.0,0.,12.0
1979-07-30 16:01:38.130 ,2,1,0.,12.0,0.,12.0,0.,12.0,0.,12.0
1979-07-30 16:01:50.130 ,2,1,0.,12.0,0.,12.0,0.,12.0,0.,12.0
1979-07-30 16:02:02.130 ,2,0,0.,12.0,0.,12.0,0.,12.0,0.,12.0
1979-07-30 16:02:14.130 ,2,0,0.,12.0,0.,12.0,0.,12.0,0.,12.0
1979-07-30 16:02:26.130 ,3,1,0.,12.0,0.,12.0,0.,12.0,0.,12.0
1979-07-30 16:02:38.130 ,3,1,0.,12.0,0.,12.0,0.,12.0,0.,12.0
1979-07-30 16:02:50.130 ,3,0,0.,12.0,0.,12.0,0.,12.0,0.,12.0
1979-07-30 16:03:02.130 ,3,0,0.,12.0,0.,12.0,0.,12.0,0.,12.0
1979-07-30 16:03:14.130 ,4,1,0.,12.0,0.,12.0,0.,12.0,0.,12.0
1979-07-30 16:03:26.130 ,4,1,0.,12.0,0.,12.0,0.,12.0,0.,12.0
1979-07-30 16:03:38.130 ,4,0,0.,12.0,0.,12.0,0.,12.0,0.,12.0
1979-07-30 16:03:50.130 ,4,0,0.,12.0,0.,12.0,0.,12.0,0.,12.0
1979-07-30 16:04:02.130 ,5,1,0.,12.0,0.,12.0,0.,12.0,0.,12.0
1979-07-30 16:04:14.130 ,5,1,0.,12.0,0.,12.0,0.,12.0,0.,12.0
1979-07-30 16:04:26.130 ,5,0,0.,12.0,0.,12.0,0.,12.0,0.,12.0
1979-07-30 16:04:38.130 ,5,0,0.,12.0,0.,12.0,0.,12.0,0.,12.0
1979-07-30 16:04:50.130 ,6,1,0.,12.0,0.,12.0,0.,12.0,0.,12.0
1979-07-30 16:05:02.130 ,6,1,0.,12.0,0.,12.0,0.,12.0,0.,12.0
1979-07-30 16:05:14.130 ,6,0,0.,12.0,0.,12.0,0.,12.0,0.,12.0
1979-07-30 16:05:26.130 ,6,0,0.,12.0,0.,12.0,0.,12.0,0.,12.0
1979-07-30 16:05:38.130 ,7,1,0.,12.0,0.,12.0,0.,12.0,0.,12.0
1979-07-30 16:05:50.130 ,7,1,0.,12.0,0.,12.0,0.,12.0,0.,12.0
1979-07-30 16:06:02.130 ,7,0,0.,12.0,0.,12.0,0.,12.0,0.,12.0
1979-07-30 16:06:14.130 ,7,0,0.,12.0,0.,12.0,0.,12.0,0.,12.0
1979-07-30 16:06:26.130 ,7,1,0.,12.0,0.,12.0,0.,12.0,0.,12.0
1979-07-30 16:06:38.130 ,7,1,0.,12.0,0.,12.0,0.,12.0,0.,12.0
1979-07-30 16:06:50.130 ,7,0,0.,12.0,0.,12.0,0.,12.0,0.,12.0
1979-07-30 16:07:02.130 ,7,0,0.,12.0,0.,12.0,0.,12.0,0.,12.0
1979-07-30 16:07:14.130 ,6,1,0.,12.0,0.,12.0,0.,12.0,0.,12.0
1979-07-30 16:07:26.130 ,6,1,0.,12.0,0.,12.0,0.,12.0,0.,12.0
1979-07-30 16:07:38.130 ,6,0,0.,12.0,0.,12.0,0.,12.0,0.,12.0
1979-07-30 16:07:50.130 ,6,0,0.,12.0,0.,12.0,0.,12.0,0.,12.0
1979-07-30 16:08:02.130 ,5,1,0.,12.0,0.,12.0,0.,12.0,0.,12.0
1979-07-30 16:08:14.130 ,5,1,0.,12.0,0.,12.0,0.,12.0,0.,12.0
1979-07-30 16:08:26.130 ,5,0,0.,12.0,0.,12.0,0.,12.0,0.,12.0
1979-07-30 16:08:38.130 ,5,0,0.,12.0,0.,12.0,0.,12.0,0.,12.0
1979-07-30 16:08:50.130 ,4,1,0.,12.0,0.,12.0,0.,12.0,0.,12.0
1979-07-30 16:09:02.130 ,4,1,0.,12.0,0.,12.0,0.,12.0,0.,12.0
1979-07-30 16:09:14.130 ,4,0,0.,12.0,0.,12.0,0.,12.0,0.,12.0
1979-07-30 16:09:26.130 ,4,0,0.,12.0,0.,12.0,0.,12.0,0.,12.0
1979-07-30 16:09:38.130 ,3,1,0.,12.0,0.,12.0,0.,12.0,0.,12.0
1979-07-30 16:09:50.130 ,3,1,0.,12.0,0.,12.0,0.,12.0,0.,12.0
1979-07-30 16:10:02.130 ,3,0,0.,12.0,0.,12.0,0.,12.0,0.,12.0
1979-07-30 16:10:14.130 ,3,0,0.,12.0,0.,12.0,0.,12.0,0.,12.0
1979-07-30 16:10:26.130 ,2,1,0.,12.0,0.,12.0,0.,12.0,0.,12.0
1979-07-30 16:10:38.130 ,2,1,0.,12.0,0.,12.0,0.,12.0,0.,12.0
1979-07-30 16:10:50.130 ,2,0,0.,12.0,0.,12.0,0.,12.0,0.,12.0
1979-07-30 16:11:02.130 ,2,0,0.,12.0,0.,12.0,0.,12.0,0.,12.0
1979-07-30 16:11:14.130 ,1,1,0.,12.0,0.,12.0,0.,12.0,0.,12.0
1979-07-30 16:11:26.130 ,1,1,0.,12.0,0.,12.0,0.,12.0,0.,12.0
1979-07-30 16:11:38.130 ,0,0,0.,12.0,0.,12.0,0.,12.0,0.,12.0
1979-07-30 16:11:50.130 ,0,0,,0,,0,,0,,0
1979-07-30 16:11:53.130 ,0,0,,0,,0,,0,,0
1979-07-30 16:12:05.130 ,0,0,0.,12.0,0.,12.0,0.,12.0,0.,12.0
1979-07-30 16:12:02.130 ,0,1,0.,12.0,0.,12.0,0.,12.0,0.,12.0
1979-07-30 16:12:14.130 ,0,1,0.,12.0,0.,12.0,0.,12.0,0.,12.0
1979-07-30 16:12:26.130 ,0,0,0.,12.0,0.,12.0,0.,12.0,0.,12.0
1979-07-30 16:12:38.130 ,0,0,0.,12.0,0.,12.0,0.,12.0,0.,12.0
1979-07-30 16:12:50.130 ,0,1,0.,12.0,0.,12.0,0.,12.0,0.,12.0
1979-07-30 16:13:02.130 ,0,1,0.,12.0,0.,12.0,0.,12.0,0.,12.0
1979-07-30 16:13:14.130 ,0,0,0.,12.0,0.,12.0,0.,12.0,0.,12.0
1979-07-30 16:13:26.130 ,0,0,0.,12.0,0.,12.0,0.,12.0,0.,12.0
1979-07-30 16:13:38.130 ,1,1,0.,12.0,0.,12.0,0.,12.0,0.,12.0
1979-07-30 16:13:50.130 ,1,1,0.,12.0,0.,12.0,0.,12.0,0.,12.0
1979-07-30 16:14:02.130 ,1,0,0.,12.0,0.,12.0,0.,12.0,0.,12.0
1979-07-30 16:14:14.130 ,1,0,0.,12.0,0.,12.0,0.,12.0,0.,12.0
1979-07-30 16:14:26.130 ,2,1,0.,12.0,0.,12.0,0.,12.0,0.,12.0
1979-07-30 16:14:38.130 ,2,1,0.,12.0,0.,12.0,0.,12.0,0.,12.0
1979-07-30 16:14:50.130 ,2,0,0.,12.0,0.,12.0,0.,12.0,0.,12.0
1979-07-30 16:15:02.130 ,2,0,0.,12.0,0.,12.0,0.,12.0,0.,12.0
1979-07-30 16:15:14.120 ,3,1,0.,12.0,0.,12.0,0.,12.0,0.,12.0
1979-07-30 16:15:26.120 ,3,1,0.,12.0,0.,12.0,0.,12.0,0.,12.0
1979-07-30 16:15:38.120 ,3,0,0.,12.0,0.,12.0,0.,12.0,0.,12.0
1979-07-30 16:15:50.120 ,3,0,0.,12.0,0.,12.0,0.,12.0,0.,12.0
1979-07-30 16:16:02.120 ,4,1,0.,12.0,0.,12.0,0.,12.0,0.,12.0
1979-07-30 16:16:14.120 ,4,1,0.,12.0,0.,12.0,0.,12.0,0.,12.0
1979-07-30 16:16:26.120 ,4,0,0.,12.0,0.,12.0,0.,12.0,0.,12.0
1979-07-30 16:16:38.120 ,4,0,0.,12.0,0.,12.0,0.,12.0,0.,12.0
1979-07-30 16:16:50.120 ,5,1,0.,12.0,0.,12.0,0.,12.0,0.,12.0
1979-07-30 16:17:02.120 ,5,1,0.,12.0,0.,12.0,0.,12.0,0.,12.0